Location: Newark
(49.8969°N, 3.3422°E)
Time: 06:40:11
(UTC+00:00)

Envisat - Pass Details

Date: 08 December 2019
Orbit: 764 x 766 km, 98.1° (Epoch: 20 January)

Event Time Altitude Azimuth Distance (km) Brightness Sun altitude
Rises 05:52:17 0° 21° (NNE) 3,246 6.3 -15.0°
Reaches altitude 10° 05:54:51 10° 32° (NNE) 2,315 5.7 -14.6°
Maximum altitude 05:59:22 31° 94° (E) 1,320 5.0 -13.9°
Drops below altitude 10° 06:03:51 10° 157° (SSE) 2,298 6.1 -13.2°
Sets 06:06:24 0° 167° (SSE) 3,219 6.7 -12.8°
